DW4699 Weather Reports


Display with metric or nautical units.
time (UTC)temp
F
wind
direction
speed
MPH
gust
MPH
rain 1hr
in
rain 24hr
in
rain mn
in
humidity
%
barometer
mb
20200227021329 49 335 0.0 2.0 0.00 0.00 0.00 97 999.4
20200227020843 49 337 0.0 2.0 0.00 0.00 0.00 97 999.7
20200227020332 49 5 0.0 2.0 0.00 0.00 0.00 97 999.9
20200227015825 49 7 0.0 2.0 0.00 0.00 0.00 97 1000.3
20200227015338 49 12 1.0 2.0 0.00 0.00 0.00 97 1000.3
20200227014831 49 34 0.0 3.0 0.00 0.00 0.00 97 1000.5
20200227014321 49 357 1.0 3.0 0.00 0.00 0.00 97 1000.7
20200227013835 49 351 0.0 3.0 0.00 0.00 0.00 97 1000.8
20200227013324 49 352 0.0 3.0 0.00 0.00 0.00 97 1000.9
20200227012840 49 354 0.0 3.0 0.00 0.00 0.00 97 1001.1
20200227012333 49 1 0.0 3.0 0.00 0.00 0.00 97 1001.1
20200227011826 49 1 0.0 3.0 0.00 0.00 0.00 97 1001.2
20200227011339 49 340 0.0 2.0 0.00 0.00 0.00 97 1001.6
20200227010832 49 339 0.0 2.0 0.00 0.00 0.00 97 1001.7
20200227010327 49 340 0.0 2.0 0.00 0.00 0.00 97 1001.8
20200227005820 49 340 0.0 2.0 0.00 0.00 0.00 96 1001.9
20200227005337 49 238 0.0 4.0 0.00 0.00 0.00 96 1001.8
20200227004830 49 238 1.0 4.0 0.00 0.00 0.00 96 1001.8
20200227004323 49 351 1.0 3.0 0.00 0.00 0.00 96 1001.9
20200227003836 49 33 0.0 3.0 0.00 0.00 0.00 96 1002.0
20200227003332 49 289 0.0 3.0 0.00 0.00 0.00 96 1002.2
20200227002829 49 288 0.0 5.0 0.00 0.00 0.00 96 1002.4
20200227002326 49 289 0.0 5.0 0.00 0.00 0.00 96 1002.7
20200227001839 49 287 0.0 2.0 0.00 0.00 0.00 96 1002.9
20200227001332 49 287 0.0 2.0 0.00 0.00 0.00 96 1002.9
20200227000829 49 287 0.0 5.0 0.00 0.00 0.00 96 1002.9
20200227000335 49 287 0.0 5.0 0.00 0.00 0.00 96 1003.1
20200226235828 49 288 0.0 2.0 0.00 0.00 0.00 96 1003.2
20200226235338 49 302 0.0 2.0 0.00 0.00 0.00 96 1003.3
20200226234834 49 347 0.0 4.0 0.00 0.00 0.00 96 1003.4
20200226234327 49 349 0.0 4.0 0.00 0.00 0.00 96 1003.3
20200226233820 49 349 0.0 3.0 0.00 0.00 0.00 96 1003.5
20200226233333 49 349 0.0 4.0 0.00 0.00 0.00 96 1003.8
20200226232826 49 350 0.0 4.0 0.00 0.00 0.00 96 1003.9
20200226232323 49 350 0.0 4.0 0.00 0.00 0.00 96 1004.0
20200226231836 49 350 1.0 5.0 0.00 0.00 0.00 96 1004.0
20200226231324 49 247 0.0 5.0 0.00 0.00 0.00 96 1004.3
20200226230824 49 247 0.0 1.0 0.00 0.00 0.00 96 1004.4
20200226230337 49 247 0.0 1.0 0.00 0.00 0.00 96 1004.5
20200226225829 49 247 0.0 1.0 0.00 0.00 0.00 96 1004.7
20200226225335 49 247 0.0 1.0 0.00 0.00 0.00 96 1004.9
20200226224831 49 247 0.0 1.0 0.00 0.00 0.00 96 1004.7
20200226224324 49 247 0.0 2.0 0.00 0.00 0.00 96 1004.6
20200226223837 49 18 0.0 3.0 0.00 0.00 0.00 96 1004.6
20200226223330 50 18 0.0 3.0 0.00 0.00 0.00 96 1004.8
20200226222827 50 18 0.0 3.0 0.00 0.00 0.00 95 1005.1
20200226222323 50 258 0.0 2.0 0.00 0.00 0.00 95 1005.0
20200226221836 50 258 0.0 2.0 0.00 0.00 0.00 96 1005.3
20200226221325 50 320 0.0 6.0 0.00 0.00 0.00 95 1005.4
20200226220837 50 320 1.0 6.0 0.00 0.00 0.00 95 1005.3
20200226220329 50 320 0.0 2.0 0.00 0.00 0.00 95 1005.5
20200226215821 50 320 0.0 2.0 0.00 0.00 0.00 95 1005.6
20200226215323 50 320 0.0 2.0 0.00 0.00 0.00 95 1005.6
20200226214836 50 332 0.0 2.0 0.00 0.00 0.00 95 1005.5
20200226214329 50 332 0.0 2.0 0.00 0.00 0.00 95 1005.3
20200226213842 50 332 0.0 1.0 0.00 0.00 0.00 95 1005.5
20200226213329 50 332 0.0 1.0 0.00 0.00 0.00 95 1005.7
20200226212822 50 332 0.0 3.0 0.00 0.00 0.00 95 1005.8
20200226212336 50 332 0.0 3.0 0.00 0.00 0.00 95 1005.8
20200226211831 50 332 0.0 0.0 0.00 0.00 0.00 95 1005.7
20200226211328 50 323 0.0 0.0 0.00 0.00 0.00 95 1005.8
20200226210826 50 323 0.0 1.0 0.00 0.00 0.00 95 1006.0
20200226210338 50 323 0.0 1.0 0.00 0.00 0.00 95 1005.7
20200226205832 50 323 0.0 9.0 0.00 0.00 0.00 95 1005.9
20200226205325 50 323 0.0 9.0 0.00 0.00 0.00 95 1006.1
20200226204837 50 323 0.0 2.0 0.00 0.00 0.00 95 1006.2
20200226204329 50 323 0.0 4.0 0.00 0.00 0.00 95 1006.4
20200226203844 51 323 0.0 4.0 0.00 0.00 0.00 95 1006.4
20200226203334 51 323 0.0 2.0 0.00 0.00 0.00 95 1006.4
20200226202827 51 323 0.0 3.0 0.00 0.00 0.00 95 1006.4
20200226202320 51 323 0.0 3.0 0.00 0.00 0.00 95 1006.3
20200226201833 51 317 0.0 2.0 0.00 0.00 0.00 94 1006.4
20200226201320 51 317 0.0 3.0 0.00 0.00 0.00 94 1006.5
20200226200838 51 317 0.0 3.0 0.00 0.00 0.00 94 1006.8
20200226200330 51 317 0.0 1.0 0.00 0.00 0.00 94 1007.0
20200226195823 51 317 0.0 2.0 0.00 0.00 0.00 94 1007.2
20200226195321 51 317 0.0 9.0 0.00 0.00 0.00 94 1007.3
20200226194833 51 317 0.0 3.0 0.00 0.00 0.00 94 1007.5
20200226194327 52 317 0.0 1.0 0.00 0.00 0.00 94 1007.7
20200226193821 52 317 0.0 1.0 0.00 0.00 0.00 94 1007.8
20200226193334 52 318 0.0 1.0 0.00 0.00 0.00 95 1007.7
20200226192825 52 318 0.0 2.0 0.00 0.00 0.00 95 1007.8
20200226192338 52 318 0.0 2.0 0.00 0.00 0.00 95 1007.7
20200226191830 52 318 0.0 0.0 0.00 0.00 0.00 95 1007.9
20200226191330 52 318 0.0 0.0 0.00 0.00 0.00 95 1008.0
20200226190824 52 318 0.0 0.0 0.00 0.00 0.00 95 1007.9
20200226190337 52 318 0.0 2.0 0.00 0.00 0.00 96 1008.1
20200226185830 51 318 0.0 2.0 0.00 0.00 0.00 95 1008.1
20200226185323 51 319 0.0 0.0 0.00 0.00 0.00 95 1008.2
20200226184819 51 319 0.0 2.0 0.00 0.00 0.00 96 1008.2
20200226184332 51 319 0.0 2.0 0.00 0.00 0.00 96 1008.3
20200226183832 51 318 0.0 4.0 0.00 0.00 0.00 96 1008.2
20200226183325 51 280 0.0 4.0 0.00 0.00 0.00 96 1008.4
20200226182838 51 276 1.0 3.0 0.00 0.00 0.00 96 1008.2
20200226182331 51 276 0.0 0.0 0.00 0.00 0.00 96 1008.5
20200226181824 51 276 0.0 0.0 0.00 0.00 0.00 96 1008.8
20200226181317 51 275 0.0 0.0 0.00 0.00 0.00 96 1008.9
20200226180834 51 275 0.0 0.0 0.00 0.00 0.00 96 1009.0
20200226180322 51 275 0.0 1.0 0.00 0.00 0.00 96 1009.2
20200226175819 51 275 0.0 1.0 0.00 0.00 0.00 96 1009.4
20200226175333 51 275 0.0 0.0 0.00 0.00 0.00 96 1009.5
20200226174829 51 275 0.0 1.0 0.00 0.00 0.00 96 1009.5
20200226174322 51 275 0.0 1.0 0.00 0.00 0.00 96 1009.5
20200226173836 51 275 0.0 0.0 0.00 0.00 0.00 96 1009.6
20200226173327 51 275 0.0 1.0 0.00 0.00 0.00 96 1009.8
20200226172820 51 275 0.0 1.0 0.00 0.00 0.00 96 1009.9
20200226172334 51 275 0.0 2.0 0.00 0.00 0.00 96 1010.0
20200226171831 51 275 0.0 2.0 0.00 0.00 0.00 97 1010.0
20200226171323 51 275 0.0 1.0 0.00 0.00 0.00 97 1010.1
20200226170837 51 275 0.0 2.0 0.00 0.00 0.00 97 1010.2
20200226170329 51 275 0.0 2.0 0.00 0.00 0.00 97 1010.2
20200226165822 51 275 0.0 2.0 0.00 0.00 0.00 97 1010.2
20200226165335 51 275 0.0 2.0 0.00 0.00 0.00 97 1010.2
20200226164847 51 275 0.0 3.0 0.00 0.00 0.00 97 1010.5
20200226164328 51 275 0.0 3.0 0.00 0.00 0.00 97 1010.4
20200226163848 51 275 0.0 4.0 0.00 0.00 0.00 97 1010.4
20200226163331 51 275 0.0 4.0 0.00 0.00 0.00 97 1010.4
20200226162827 51 275 0.0 3.0 0.00 0.00 0.00 97 1010.5
20200226162321 51 275 0.0 3.0 0.00 0.00 0.00 97 1010.4
20200226161837 51 274 0.0 0.0 0.00 0.00 0.00 97 1010.4
20200226161328 51 274 0.0 0.0 0.00 0.00 0.00 97 1010.4
20200226160821 51 274 0.0 0.0 0.00 0.00 0.00 97 1010.5
20200226160334 51 274 0.0 2.0 0.00 0.00 0.00 97 1010.5
20200226155831 51 274 1.0 2.0 0.00 0.00 0.00 97 1010.5
20200226155321 51 258 0.0 1.0 0.00 0.00 0.00 97 1010.6
20200226154834 51 258 0.0 0.0 0.00 0.00 0.00 97 1010.7
20200226154327 51 258 0.0 1.0 0.00 0.00 0.00 97 1010.8
20200226153820 51 258 0.0 1.0 0.00 0.00 0.00 97 1011.0
20200226153336 51 257 0.0 1.0 0.00 0.00 0.00 97 1011.1
20200226152828 51 257 0.0 2.0 0.00 0.00 0.00 97 1011.1
20200226152326 51 257 0.0 4.0 0.00 0.00 0.00 97 1011.3
20200226151839 51 257 0.0 4.0 0.00 0.00 0.00 97 1011.4
20200226151331 51 257 0.0 0.0 0.00 0.00 0.00 97 1011.6
20200226150846 50 257 0.0 0.0 0.00 0.00 0.00 97 1011.5
20200226150329 50 257 0.0 0.0 0.00 0.00 0.00 97 1011.6
20200226145822 50 257 0.0 0.0 0.00 0.00 0.00 97 1011.7
20200226145338 50 257 0.0 0.0 0.00 0.00 0.00 97 1011.8
20200226144832 50 257 0.0 0.0 0.00 0.00 0.00 97 1011.8
20200226144331 50 257 0.0 0.0 0.00 0.00 0.00 97 1011.7
20200226143820 50 257 0.0 0.0 0.00 0.00 0.00 97 1011.8
20200226143336 50 257 0.0 0.0 0.00 0.00 0.00 97 1011.9
20200226142829 50 257 0.0 0.0 0.00 0.00 0.00 97 1011.9
20200226142324 50 257 0.0 0.0 0.00 0.00 0.00 97 1012.0
20200226141836 50 257 0.0 0.0 0.00 0.00 0.00 97 1012.1
20200226141329 50 257 0.0 0.0 0.00 0.00 0.00 97 1012.1
20200226140822 50 257 0.0 0.0 0.00 0.00 0.00 97 1012.1
20200226140339 50 257 0.0 0.0 0.00 0.00 0.00 97 1012.1
20200226135832 50 257 0.0 0.0 0.00 0.00 0.00 97 1012.1
20200226135329 50 257 0.0 0.0 0.00 0.00 0.00 97 1011.9
20200226134821 50 257 0.0 0.0 0.00 0.00 0.00 97 1011.9
20200226134334 50 257 0.0 0.0 0.00 0.00 0.00 97 1011.9
20200226133828 50 257 0.0 0.0 0.00 0.00 0.00 97 1012.1
20200226133320 50 257 0.0 0.0 0.00 0.00 0.00 97 1012.1
20200226132820 49 234 0.0 0.0 0.00 0.00 0.00 97 1011.9
20200226132333 49 234 0.0 0.0 0.00 0.00 0.00 97 1011.9
20200226131829 49 234 0.0 0.0 0.00 0.00 0.00 97 1011.7
20200226131322 49 234 0.0 0.0 0.00 0.00 0.00 97 1011.6
20200226130836 49 234 0.0 0.0 0.00 0.00 0.00 97 1011.5
20200226130329 49 234 0.0 0.0 0.00 0.00 0.00 97 1011.4
20200226125825 49 234 0.0 0.0 0.00 0.00 0.00 97 1011.3
20200226125339 49 234 0.0 0.0 0.00 0.00 0.00 97 1011.2
20200226124836 49 234 0.0 0.0 0.00 0.00 0.00 97 1011.1
20200226124329 49 234 0.0 0.0 0.00 0.00 0.00 97 1010.9
20200226123822 49 234 0.0 0.0 0.00 0.00 0.00 97 1010.8
20200226123338 49 234 0.0 0.0 0.00 0.00 0.00 97 1010.7
20200226122831 49 234 0.0 0.0 0.00 0.00 0.00 97 1010.7
20200226122325 49 234 0.0 0.0 0.00 0.00 0.00 97 1010.8
20200226121818 49 234 0.0 0.0 0.00 0.00 0.00 97 1010.8
20200226121318 49 234 0.0 0.0 0.00 0.00 0.00 97 1010.7
20200226120834 49 234 0.0 0.0 0.00 0.00 0.00 97 1010.6
20200226120322 49 234 0.0 0.0 0.00 0.00 0.00 97 1010.4
20200226115835 49 234 0.0 0.0 0.00 0.00 0.00 97 1010.2
20200226115329 49 234 0.0 0.0 0.00 0.00 0.00 97 1010.2
20200226114825 49 234 0.0 0.0 0.00 0.00 0.00 97 1010.2
20200226114337 49 234 0.0 0.0 0.00 0.00 0.00 97 1010.3
20200226113831 49 234 0.0 0.0 0.00 0.00 0.00 97 1010.4
20200226113324 49 234 0.0 0.0 0.00 0.00 0.00 97 1010.4
20200226112837 49 234 0.0 0.0 0.00 0.00 0.00 97 1010.4
20200226112331 49 234 0.0 0.0 0.00 0.00 0.00 97 1010.5
20200226111823 49 234 0.0 0.0 0.00 0.00 0.00 97 1010.6
20200226111317 49 234 0.0 0.0 0.00 0.00 0.00 97 1010.6
20200226110834 49 234 0.0 0.0 0.00 0.00 0.00 97 1010.8
20200226110326 49 234 0.0 0.0 0.00 0.00 0.00 97 1010.7
20200226105819 49 234 0.0 0.0 0.00 0.00 0.00 97 1010.7
20200226105337 49 234 0.0 0.0 0.00 0.00 0.00 97 1010.6
20200226104829 49 234 0.0 0.0 0.00 0.00 0.00 97 1010.4
20200226104323 49 234 0.0 0.0 0.00 0.00 0.00 97 1010.3
20200226103836 49 234 0.0 0.0 0.00 0.00 0.00 97 1010.3
20200226103326 49 234 0.0 0.0 0.00 0.00 0.00 97 1010.2
20200226102823 49 234 0.0 0.0 0.00 0.00 0.00 97 1010.1
20200226102336 49 234 0.0 0.0 0.00 0.00 0.00 97 1010.0
20200226101829 49 234 0.0 0.0 0.00 0.00 0.00 97 1010.0
20200226101325 49 234 0.0 0.0 0.00 0.00 0.00 97 1009.9
20200226100839 49 234 0.0 0.0 0.00 0.00 0.00 97 1009.7
20200226100330 49 234 0.0 0.0 0.00 0.00 0.00 97 1009.6
20200226095823 49 234 0.0 0.0 0.00 0.00 0.00 97 1009.5
20200226095337 49 234 0.0 0.0 0.00 0.00 0.00 97 1009.5
20200226094829 49 234 0.0 0.0 0.00 0.00 0.00 97 1009.4
20200226094322 49 234 0.0 0.0 0.00 0.00 0.00 97 1009.4
20200226093836 49 234 0.0 0.0 0.00 0.00 0.00 97 1009.5
20200226093330 49 234 0.0 0.0 0.00 0.00 0.00 97 1009.6
20200226092843 49 234 0.0 0.0 0.00 0.00 0.00 97 1009.7
20200226092331 49 234 0.0 0.0 0.00 0.00 0.00 97 1009.7
20200226091824 49 234 0.0 0.0 0.00 0.00 0.00 97 1009.7
20200226091337 49 234 0.0 0.0 0.00 0.00 0.00 97 1009.7
20200226090832 49 234 0.0 0.0 0.00 0.00 0.00 97 1009.7
20200226090324 49 234 0.0 0.0 0.00 0.00 0.00 97 1009.7
20200226085831 49 234 0.0 0.0 0.00 0.00 0.00 97 1009.8
20200226085328 49 234 0.0 0.0 0.00 0.00 0.00 97 1009.7
20200226084841 49 234 0.0 0.0 0.00 0.00 0.00 97 1009.7
20200226084328 49 234 0.0 0.0 0.00 0.00 0.00 97 1009.7
20200226083826 49 234 0.0 0.0 0.00 0.00 0.00 97 1009.6
20200226083319 49 234 0.0 0.0 0.00 0.00 0.00 97 1009.7
20200226082832 49 234 0.0 0.0 0.00 0.00 0.00 97 1009.7
20200226082327 49 234 0.0 0.0 0.00 0.00 0.00 97 1009.7
20200226081827 49 234 0.0 0.0 0.00 0.00 0.00 97 1009.7
20200226081320 49 234 0.0 0.0 0.00 0.00 0.00 97 1009.6
20200226080834 49 234 0.0 0.0 0.00 0.00 0.00 97 1009.6
20200226080325 49 234 0.0 0.0 0.00 0.00 0.00 97 1009.6
20200226075838 49 234 0.0 0.0 0.00 0.00 0.00 97 1009.5
20200226075334 49 234 0.0 0.0 0.00 0.00 0.00 96 1009.6
20200226074826 49 234 0.0 0.0 0.00 0.00 0.00 96 1009.6
20200226074320 49 234 0.0 0.0 0.00 0.00 0.00 96 1009.6
20200226073841 49 234 0.0 0.0 0.00 0.00 0.00 96 1009.7
20200226073331 49 234 0.0 0.0 0.00 0.00 0.00 96 1009.7
20200226072822 49 234 0.0 0.0 0.00 0.00 0.00 96 1009.8
20200226072317 49 234 0.0 0.0 0.00 0.00 0.00 96 1009.8
20200226071832 49 234 0.0 0.0 0.00 0.00 0.00 96 1009.7
20200226071326 49 234 0.0 0.0 0.00 0.00 0.00 96 1009.8
20200226070824 49 234 0.0 0.0 0.00 0.00 0.00 96 1009.9
20200226070334 49 234 0.0 0.0 0.00 0.00 0.00 96 1009.7
20200226065832 49 234 0.0 1.0 0.00 0.00 0.00 96 1009.8
20200226065317 49 234 0.0 1.0 0.00 0.00 0.00 96 1009.7
20200226064832 49 234 0.0 0.0 0.00 0.00 0.00 96 1009.8
20200226064329 49 234 0.0 0.0 0.00 0.00 0.00 96 1009.8
20200226063822 49 234 0.0 0.0 0.00 0.00 0.00 96 1009.8
20200226063338 49 234 0.0 0.0 0.00 0.00 0.00 96 1009.7
20200226062831 49 234 0.0 0.0 0.00 0.00 0.00 96 1009.7
20200226062331 49 234 0.0 0.0 0.00 0.00 0.00 96 1009.7
20200226061827 49 234 0.0 0.0 0.00 0.00 0.00 97 1009.7
20200226061320 49 234 0.0 0.0 0.00 0.00 0.00 96 1009.6
20200226060834 49 234 0.0 0.0 0.00 0.00 0.00 96 1009.6
20200226060326 49 234 0.0 0.0 0.00 0.00 0.00 96 1009.6
20200226055839 49 234 0.0 0.0 0.00 0.00 0.00 96 1009.6
20200226055325 49 234 0.0 0.0 0.00 0.00 0.00 96 1009.6
20200226054838 49 234 0.0 0.0 0.00 0.00 0.00 96 1009.6
20200226054334 49 234 0.0 0.0 0.00 0.00 0.00 96 1009.5
20200226053827 49 234 0.0 0.0 0.00 0.00 0.00 96 1009.5
20200226053322 49 234 0.0 0.0 0.00 0.00 0.00 96 1009.5
20200226052834 49 234 0.0 0.0 0.00 0.00 0.00 96 1009.6
20200226052328 49 234 0.0 0.0 0.00 0.00 0.00 96 1009.7
20200226051821 49 234 0.0 0.0 0.00 0.00 0.00 96 1009.7
20200226051334 49 234 0.0 0.0 0.00 0.00 0.00 96 1009.7
20200226050826 49 234 0.0 0.0 0.00 0.00 0.00 96 1009.6
20200226050320 49 234 0.0 0.0 0.00 0.00 0.00 96 1009.7
20200226045833 49 234 0.0 0.0 0.00 0.00 0.00 96 1009.8
20200226045335 49 234 0.0 0.0 0.00 0.00 0.00 96 1009.8
20200226044828 49 234 0.0 0.0 0.00 0.00 0.00 96 1009.7
20200226044320 50 234 0.0 0.0 0.00 0.00 0.00 96 1009.8
20200226043835 49 234 0.0 0.0 0.00 0.00 0.00 96 1009.8
20200226043331 50 234 0.0 0.0 0.00 0.00 0.00 96 1009.9
20200226042824 49 234 0.0 0.0 0.00 0.00 0.00 96 1009.8
20200226042321 49 234 0.0 0.0 0.00 0.00 0.00 96 1009.8
20200226041833 49 234 0.0 0.0 0.00 0.00 0.00 96 1009.7
20200226041327 49 234 0.0 0.0 0.00 0.00 0.00 96 1009.8
20200226040820 49 234 0.0 0.0 0.00 0.00 0.00 96 1009.8
20200226040332 49 234 0.0 0.0 0.00 0.00 0.00 96 1009.8
20200226035825 50 234 0.0 0.0 0.00 0.00 0.00 96 1009.9
20200226035334 49 234 0.0 0.0 0.00 0.00 0.00 96 1010.0
20200226034826 49 234 0.0 0.0 0.00 0.00 0.00 96 1010.1
20200226034324 49 234 0.0 0.0 0.00 0.00 0.00 96 1010.0
20200226033838 49 234 0.0 0.0 0.00 0.00 0.00 96 1010.1
20200226033330 49 234 0.0 0.0 0.00 0.00 0.00 96 1010.1
20200226032823 49 234 0.0 0.0 0.00 0.00 0.00 96 1010.1
20200226032337 50 234 0.0 0.0 0.00 0.00 0.00 96 1010.2
20200226031829 50 234 0.0 0.0 0.00 0.00 0.00 96 1010.2
20200226031322 50 234 0.0 0.0 0.00 0.00 0.00 96 1010.1
20200226030836 50 234 0.0 0.0 0.00 0.00 0.00 96 1010.2
20200226030327 50 234 0.0 0.0 0.00 0.00 0.00 96 1010.2
20200226025821 50 234 0.0 0.0 0.00 0.00 0.00 96 1010.0
20200226025338 50 234 0.0 0.0 0.00 0.00 0.00 96 1009.9
20200226024831 50 234 0.0 0.0 0.00 0.00 0.00 96 1009.9
20200226024324 50 234 0.0 0.0 0.00 0.00 0.00 96 1009.9
20200226023839 50 234 0.0 0.0 0.00 0.00 0.00 96 1009.9
20200226023323 50 234 0.0 0.0 0.00 0.00 0.00 96 1009.9
20200226022836 50 234 0.0 0.0 0.00 0.00 0.00 96 1009.9
20200226022328 50 234 0.0 0.0 0.00 0.00 0.00 96 1009.7
20200226021820 50 234 0.0 0.0 0.00 0.00 0.00 96 1009.7